User: anonymous   Login
Location: Caltech
(34.1382°N, 118.1253°W)
Time: 13:45:33
(UTC-07:00)
Language:

Cosmos 1975 - Orbit

View from above orbital plane
View from above orbital plane
View from above satellite
View from above satellite

Ground track
Ground track

The orbit data is extracted from the following two-line orbital elements,

1 19573U 88093A   15108.03203220  .00004032  00000-0  30181-3 0  9995
2 19573 082.5245 030.1127 0016838 107.6791 252.6274 15.02376059440930
Epoch (UTC): 18 April 2015 00:46:07
Eccentricity: 0.0016838
inclination: 82.5245°
perigee height: 548 km
apogee height: 571 km
right ascension of ascending node: 30.1127°
argument of perigee: 107.6791°
revolutions per day: 15.02376059
mean anomaly at epoch: 252.6274°
orbit number at epoch: 44093

The dashed part of the orbit path shows where the satellite is in the earth's shadow,  

DLR